Погода в Тбилиси

Грузия     41°41′49″N   44°47′57″E
темп.,
°C
ветер,
м/с
пор.,
м/с
влажн.,
%
обл.,
%
осадки,
мм/ч
давл.,
гПа
погр.,
м
16 апреля, пт
пт1601:00+12ссз2451100 0.0 1018171
04:00+10сз34595 0.0 1019174
07:00+9сз236298 0.0 1020141
10:00+14с114436 0.0 1019522
13:00+19юв23329 0.0 10181689
16:00+20ююв22328 0.0 10172085
19:00+18ю2139100 0.0 1017937
22:00+15з005026 0.1 101913
17 апреля, сб
сб1701:00+14ссз115515 0.0 102014
04:00+12сз116043 0.0 102125
07:00+11сз016295 0.0 102117
10:00+17вюв1144100 0.0 1020650
13:00+20юв333829 0.0 10191351
16:00+21юв2136100 0.0 10161337
19:00+19ю125084 0.1 1017117
22:00+14ссз477225 0.3 1019312
18 апреля, вс
вс1801:00+12ссз4781100 0.3 1020293
04:00+12сз3580100 0.3 1020199
07:00+12сз237898 0.0 1019116
10:00+17ссв115585 0.0 1019482
13:00+21вюв224112 0.0 10171543
16:00+23юв2340100 0.1 10151717
19:00+16ссз236790 0.4 1017326
22:00+15з1170100 0.5 1018140
19 апреля, пн
пн1901:00+15сз1171100 0.0 101826
04:00+13ссз2378100 0.0 1018123
07:00+13ссз247975 0.0 1018165
10:00+18ссз3456100 0.0 1017595
13:00+23ссв233998 0.0 10161289
16:00+25св0332100 0.0 10142204
19:00+19ююв126258 0.9 1015251
22:00+17ююз1168100 0.9 101525
20 апреля, вт
вт2001:00+16сз116684 0.0 101611
04:00+15ю1165100 0.0 101513
07:00+14юв1272100 0.0 101581
10:00+18ююв2459100 0.0 1013537
13:00+22юв4449100 0.0 1011955
16:00+22ююв3350100 0.1 1009818
19:00+18з6871100 1.6 1010720
22:00+12сз5108889 8.9 1015478